sat.trackr.live / text

‹ back to catalog

STARLINK-35037

NORAD 65483 · 2025-195AB

PAYLOAD ACTIVE UNKNOWN

§ Identity

Operator
Country
US
Launch date
2025-09-03
Launch site
AFETR
Launch vehicle
Mass (kg)
RCS (m²)

Purposes: comms

External: N2YO · Heavens-Above · Gunter

§ Orbital elements

Epoch: 2026-09-20T04:46:21.012384Z

Period
93.85 min
Inclination
53.1592°
Eccentricity
0.0001021
Mean motion
15.34394914 rev/d
Perigee alt
462.0 km
Apogee alt
463.4 km
Semi-major
6,840.9 km
B*
4.8394e-4
RAAN
71.1492°
Arg perigee
99.0229°
Mean anomaly
261.0889°
Rev number
5,980

§ Raw data

STARLINK-350371 65483U 25195AB  26263.19885431  .00016007  00000+0  48394-3 0  99902 65483  53.1592  71.1492 0001021  99.0229 261.0889 15.34394914 59801

JSON: /api/v1/satellites/65483 · /tle

For live sub-satellite position, see the globe view (requires WebGL).

§ Visibility from observer

Set your observer location to see the next 7 days of passes ≥ 10°. The values pass through the URL so the page stays shareable.

No JS? Fill the form by hand. The geolocation button needs JavaScript.